Location: Bailey Volunteer Fire Department
(33.4359°N, 96.1680°W)
Time: 16:47:47
(UTC+00:00)

USA 59 Rocket - Pass Details

Date: 13 December 2025
Orbit: 369 x 1675 km, 63.3° (Epoch: 14 January)

Event Time Altitude Azimuth Distance (km) Brightness Sun altitude
Exits shadow 12:13:21 16° 260° (W) 1,828 1.9 -13.6°
Maximum altitude 12:14:34 17° 243° (WSW) 1,842 2.1 -13.4°
Drops below altitude 10° 12:18:15 10° 203° (SSW) 2,575 3.2 -12.7°
Sets 12:22:06 0° 186° (S) 3,812 4.3 -11.9°
